| time (UTC) | temp C | wind direction | speed KPH | gust KPH | rain 1hr cm | rain 24hr cm | rain mn cm | humidity % | barometer mb |
| 20260906230612 | 25 | 331 | 6.4 | 11.3 | 0.00 | 0.00 | 0.00 | 54 | 1008.2 |
| 20260906225606 | 25 | 304 | 6.4 | 14.5 | 0.00 | 0.00 | 0.00 | 55 | 1008.3 |
| 20260906225102 | 25 | 319 | 6.4 | 14.5 | 0.00 | 0.00 | 0.00 | 55 | 1008.3 |
| 20260906224606 | 26 | 355 | 6.4 | 14.5 | 0.00 | 0.00 | 0.00 | 55 | 1008.3 |
| 20260906224101 | 26 | 9 | 6.4 | 14.5 | 0.00 | 0.00 | 0.00 | 54 | 1008.3 |
| 20260906223559 | 26 | 355 | 4.8 | 14.5 | 0.00 | 0.00 | 0.00 | 54 | 1008.4 |
| 20260906223058 | 26 | 355 | 4.8 | 11.3 | 0.00 | 0.00 | 0.00 | 55 | 1008.4 |
| 20260906222557 | 26 | 355 | 6.4 | 11.3 | 0.00 | 0.00 | 0.00 | 55 | 1008.3 |
| 20260906222055 | 26 | 335 | 6.4 | 11.3 | 0.00 | 0.00 | 0.00 | 56 | 1008.3 |
| 20260906221554 | 26 | 316 | 6.4 | 12.9 | 0.00 | 0.00 | 0.00 | 56 | 1008.3 |
| 20260906221055 | 26 | 323 | 6.4 | 14.5 | 0.00 | 0.00 | 0.00 | 56 | 1008.3 |
| 20260906220555 | 25 | 310 | 6.4 | 17.7 | 0.00 | 0.00 | 0.00 | 56 | 1008.3 |
| 20260906220052 | 25 | 307 | 6.4 | 17.7 | 0.00 | 0.00 | 0.00 | 56 | 1008.3 |
| 20260906215548 | 25 | 317 | 8.0 | 12.9 | 0.00 | 0.00 | 0.00 | 56 | 1008.4 |
| 20260906215050 | 25 | 311 | 8.0 | 17.7 | 0.00 | 0.00 | 0.00 | 57 | 1008.4 |
| 20260906214547 | 25 | 338 | 6.4 | 17.7 | 0.00 | 0.00 | 0.00 | 57 | 1008.4 |
| 20260906214044 | 25 | 312 | 6.4 | 14.5 | 0.00 | 0.00 | 0.00 | 57 | 1008.3 |
| 20260906213542 | 25 | 318 | 8.0 | 16.1 | 0.00 | 0.00 | 0.00 | 57 | 1008.3 |
| 20260906213038 | 25 | 332 | 8.0 | 17.7 | 0.00 | 0.00 | 0.00 | 57 | 1008.3 |
| 20260906212536 | 26 | 316 | 8.0 | 17.7 | 0.00 | 0.00 | 0.00 | 57 | 1008.1 |
| 20260906212037 | 26 | 303 | 8.0 | 16.1 | 0.00 | 0.00 | 0.00 | 56 | 1008.1 |
| 20260906211534 | 26 | 317 | 8.0 | 16.1 | 0.00 | 0.00 | 0.00 | 54 | 1008.2 |
| 20260906211035 | 27 | 350 | 8.0 | 14.5 | 0.00 | 0.00 | 0.00 | 51 | 1008.2 |
| 20260906210536 | 28 | 309 | 6.4 | 12.9 | 0.00 | 0.00 | 0.00 | 46 | 1008.2 |
| 20260906205537 | 29 | 327 | 4.8 | 11.3 | 0.00 | 0.00 | 0.00 | 44 | 1008.3 |
| 20260906205032 | 29 | 10 | 3.2 | 9.7 | 0.00 | 0.00 | 0.00 | 43 | 1008.3 |
| 20260906204529 | 29 | 269 | 3.2 | 6.4 | 0.00 | 0.00 | 0.00 | 44 | 1008.3 |
| 20260906204025 | 28 | 0 | 3.2 | 9.7 | 0.00 | 0.00 | 0.00 | 44 | 1008.6 |
| 20260906203024 | 28 | 34 | 3.2 | 8.0 | 0.00 | 0.00 | 0.00 | 46 | 1008.6 |
| 20260906202522 | 28 | 315 | 4.8 | 8.0 | 0.00 | 0.00 | 0.00 | 45 | 1008.7 |
| 20260906202019 | 28 | 315 | 4.8 | 8.0 | 0.00 | 0.00 | 0.00 | 47 | 1008.7 |
| 20260906200511 | 28 | 338 | 3.2 | 9.7 | 0.00 | 0.00 | 0.00 | 48 | 1008.7 |
| 20260906200009 | 28 | 336 | 4.8 | 9.7 | 0.00 | 0.00 | 0.00 | 49 | 1008.7 |
| 20260906195509 | 28 | 12 | 4.8 | 11.3 | 0.00 | 0.00 | 0.00 | 50 | 1008.9 |
| 20260906195001 | 27 | 22 | 4.8 | 11.3 | 0.00 | 0.00 | 0.00 | 51 | 1008.9 |
| 20260906194501 | 27 | 313 | 4.8 | 12.9 | 0.00 | 0.00 | 0.00 | 52 | 1008.9 |
| 20260906194000 | 27 | 313 | 6.4 | 12.9 | 0.00 | 0.00 | 0.00 | 52 | 1009.0 |
| 20260906193501 | 27 | 330 | 6.4 | 11.3 | 0.00 | 0.00 | 0.00 | 51 | 1009.0 |
| 20260906192955 | 27 | 329 | 4.8 | 9.7 | 0.00 | 0.00 | 0.00 | 49 | 1009.0 |
| 20260906192452 | 27 | 335 | 3.2 | 9.7 | 0.00 | 0.00 | 0.00 | 49 | 1009.3 |
| 20260906191452 | 27 | 319 | 4.8 | 11.3 | 0.00 | 0.00 | 0.00 | 49 | 1009.3 |
| 20260906190950 | 27 | 323 | 4.8 | 11.3 | 0.00 | 0.00 | 0.00 | 48 | 1009.3 |
| 20260906190449 | 28 | 321 | 3.2 | 11.3 | 0.00 | 0.00 | 0.00 | 48 | 1009.3 |
| 20260906185947 | 28 | 49 | 3.2 | 9.7 | 0.00 | 0.00 | 0.00 | 45 | 1009.3 |
| 20260906185444 | 28 | 122 | 3.2 | 8.0 | 0.00 | 0.00 | 0.00 | 44 | 1009.3 |
| 20260906184442 | 28 | 27 | 3.2 | 8.0 | 0.00 | 0.00 | 0.00 | 44 | 1009.3 |
| 20260906183938 | 28 | 27 | 1.6 | 6.4 | 0.00 | 0.00 | 0.00 | 45 | 1009.4 |
| 20260906183439 | 27 | 24 | 1.6 | 6.4 | 0.00 | 0.00 | 0.00 | 44 | 1009.4 |
| 20260906182942 | 27 | 0 | 3.2 | 6.4 | 0.00 | 0.00 | 0.00 | 44 | 1009.4 |
| 20260906182438 | 27 | 0 | 3.2 | 6.4 | 0.00 | 0.00 | 0.00 | 45 | 1009.5 |
| 20260906181429 | 27 | 355 | 1.6 | 6.4 | 0.00 | 0.00 | 0.00 | 44 | 1009.5 |
| 20260906180929 | 28 | 338 | 1.6 | 4.8 | 0.00 | 0.00 | 0.00 | 44 | 1009.4 |
| 20260906180421 | 27 | 338 | 3.2 | 4.8 | 0.00 | 0.00 | 0.00 | 46 | 1009.4 |
| 20260906175918 | 27 | 336 | 3.2 | 6.4 | 0.00 | 0.00 | 0.00 | 49 | 1009.4 |
| 20260906175419 | 26 | 336 | 3.2 | 6.4 | 0.00 | 0.00 | 0.00 | 49 | 1009.2 |
| 20260906174919 | 26 | 336 | 3.2 | 8.0 | 0.00 | 0.00 | 0.00 | 52 | 1009.2 |
| 20260906174415 | 25 | 336 | 4.8 | 9.7 | 0.00 | 0.00 | 0.00 | 51 | 1009.2 |
| 20260906173917 | 26 | 315 | 3.2 | 9.7 | 0.00 | 0.00 | 0.00 | 52 | 1009.2 |
| 20260906173415 | 26 | 350 | 3.2 | 8.0 | 0.00 | 0.00 | 0.00 | 51 | 1009.2 |
| 20260906172914 | 26 | 355 | 1.6 | 4.8 | 0.00 | 0.00 | 0.00 | 53 | 1009.2 |
| 20260906172414 | 26 | 355 | 3.2 | 6.4 | 0.00 | 0.00 | 0.00 | 53 | 1008.9 |
| 20260906171913 | 25 | 355 | 3.2 | 6.4 | 0.00 | 0.00 | 0.00 | 52 | 1008.9 |
| 20260906171411 | 25 | 5 | 3.2 | 6.4 | 0.00 | 0.00 | 0.00 | 51 | 1008.9 |
| 20260906170909 | 25 | 5 | 3.2 | 6.4 | 0.00 | 0.00 | 0.00 | 53 | 1008.7 |
| 20260906170408 | 24 | 5 | 1.6 | 6.4 | 0.00 | 0.00 | 0.00 | 56 | 1008.7 |
| 20260906165909 | 23 | 5 | 1.6 | 4.8 | 0.00 | 0.00 | 0.00 | 55 | 1008.7 |
| 20260906165408 | 23 | 355 | 3.2 | 4.8 | 0.00 | 0.00 | 0.00 | 59 | 1008.6 |
| 20260906164402 | 23 | 355 | 3.2 | 8.0 | 0.00 | 0.00 | 0.00 | 62 | 1008.6 |
| 20260906163858 | 23 | 323 | 1.6 | 8.0 | 0.00 | 0.00 | 0.00 | 64 | 1008.6 |
| 20260906163358 | 22 | 323 | 1.6 | 8.0 | 0.00 | 0.00 | 0.00 | 65 | 1008.6 |
| 20260906162854 | 21 | 317 | 1.6 | 4.8 | 0.00 | 0.00 | 0.00 | 66 | 1008.6 |
| 20260906162359 | 21 | 306 | 1.6 | 4.8 | 0.00 | 0.00 | 0.00 | 67 | 1008.6 |
| 20260906161349 | 20 | 306 | 1.6 | 6.4 | 0.00 | 0.00 | 0.00 | 71 | 1008.7 |
| 20260906160846 | 20 | 306 | 1.6 | 6.4 | 0.00 | 0.00 | 0.00 | 71 | 1008.7 |
| 20260906155844 | 18 | 288 | 0.0 | 4.8 | 0.00 | 0.00 | 0.00 | 74 | 1008.6 |
| 20260906155342 | 19 | 322 | 0.0 | 0.0 | 0.00 | 0.00 | 0.00 | 75 | 1008.6 |
| 20260906154847 | 18 | 322 | 0.0 | 0.0 | 0.00 | 0.00 | 0.00 | 77 | 1008.6 |
| 20260906154342 | 18 | 322 | 0.0 | 0.0 | 0.00 | 0.00 | 0.00 | 79 | 1008.6 |
| 20260906153840 | 17 | 322 | 0.0 | 0.0 | 0.00 | 0.00 | 0.00 | 81 | 1008.6 |
| 20260906153341 | 17 | 322 | 0.0 | 0.0 | 0.00 | 0.00 | 0.00 | 80 | 1008.5 |
| 20260906152339 | 16 | 322 | 0.0 | 0.0 | 0.00 | 0.00 | 0.00 | 82 | 1008.5 |
| 20260906151835 | 16 | 322 | 0.0 | 0.0 | 0.00 | 0.00 | 0.00 | 82 | 1008.5 |
| 20260906151329 | 15 | 322 | 0.0 | 0.0 | 0.00 | 0.00 | 0.00 | 83 | 1008.5 |
| 20260906150331 | 15 | 322 | 0.0 | 0.0 | 0.00 | 0.00 | 0.00 | 86 | 1008.5 |
| 20260906145826 | 14 | 322 | 0.0 | 0.0 | 0.00 | 0.00 | 0.00 | 89 | 1008.4 |
| 20260906145321 | 13 | 322 | 0.0 | 0.0 | 0.00 | 0.00 | 0.00 | 90 | 1008.4 |
| 20260906144818 | 13 | 322 | 0.0 | 0.0 | 0.00 | 0.00 | 0.00 | 91 | 1008.4 |
| 20260906144319 | 13 | 322 | 0.0 | 0.0 | 0.00 | 0.00 | 0.00 | 92 | 1007.9 |
| 20260906143811 | 12 | 322 | 0.0 | 0.0 | 0.00 | 0.00 | 0.00 | 93 | 1007.8 |
| 20260906143307 | 11 | 322 | 0.0 | 0.0 | 0.00 | 0.00 | 0.00 | 93 | 1007.8 |
| 20260906142806 | 11 | 322 | 0.0 | 0.0 | 0.00 | 0.00 | 0.00 | 93 | 1007.9 |
| 20260906142307 | 11 | 322 | 0.0 | 0.0 | 0.00 | 0.00 | 0.00 | 92 | 1007.9 |
| 20260906141804 | 11 | 322 | 0.0 | 0.0 | 0.00 | 0.00 | 0.00 | 92 | 1007.9 |
| 20260906141300 | 11 | 322 | 0.0 | 0.0 | 0.00 | 0.00 | 0.00 | 92 | 1007.8 |
| 20260906140256 | 10 | 322 | 0.0 | 0.0 | 0.00 | 0.00 | 0.00 | 92 | 1007.8 |
| 20260906135757 | 10 | 322 | 0.0 | 0.0 | 0.00 | 0.00 | 0.00 | 92 | 1007.9 |
| 20260906135252 | 10 | 322 | 0.0 | 0.0 | 0.00 | 0.00 | 0.00 | 92 | 1007.9 |
| 20260906133742 | 10 | 322 | 0.0 | 0.0 | 0.00 | 0.00 | 0.00 | 92 | 1007.9 |
| 20260906133240 | 10 | 322 | 0.0 | 0.0 | 0.00 | 0.00 | 0.00 | 92 | 1007.9 |
| 20260906132743 | 10 | 322 | 0.0 | 0.0 | 0.00 | 0.00 | 0.00 | 92 | 1007.8 |
| 20260906132243 | 10 | 322 | 0.0 | 0.0 | 0.00 | 0.00 | 0.00 | 92 | 1007.8 |
| 20260906131735 | 10 | 322 | 0.0 | 0.0 | 0.00 | 0.00 | 0.00 | 92 | 1007.8 |
| 20260906131235 | 10 | 322 | 0.0 | 0.0 | 0.00 | 0.00 | 0.00 | 92 | 1007.8 |
| 20260906130231 | 10 | 322 | 0.0 | 0.0 | 0.00 | 0.00 | 0.00 | 92 | 1007.8 |
| 20260906125728 | 10 | 322 | 0.0 | 0.0 | 0.00 | 0.00 | 0.00 | 92 | 1007.9 |
| 20260906125226 | 11 | 322 | 0.0 | 0.0 | 0.00 | 0.00 | 0.00 | 92 | 1007.9 |
| 20260906124723 | 11 | 322 | 0.0 | 0.0 | 0.00 | 0.00 | 0.00 | 92 | 1007.9 |
| 20260906124219 | 11 | 322 | 0.0 | 0.0 | 0.00 | 0.00 | 0.00 | 92 | 1007.8 |
| 20260906123719 | 11 | 322 | 0.0 | 0.0 | 0.00 | 0.00 | 0.00 | 92 | 1007.8 |
| 20260906123217 | 11 | 322 | 0.0 | 0.0 | 0.00 | 0.00 | 0.00 | 92 | 1007.8 |
| 20260906122714 | 11 | 322 | 0.0 | 0.0 | 0.00 | 0.00 | 0.00 | 92 | 1007.8 |
| 20260906122209 | 11 | 322 | 0.0 | 0.0 | 0.00 | 0.00 | 0.00 | 92 | 1007.8 |
| 20260906121706 | 11 | 322 | 0.0 | 0.0 | 0.00 | 0.00 | 0.00 | 92 | 1007.8 |
| 20260906121207 | 11 | 322 | 0.0 | 0.0 | 0.00 | 0.00 | 0.00 | 92 | 1007.8 |
| 20260906120708 | 11 | 322 | 0.0 | 0.0 | 0.00 | 0.00 | 0.00 | 92 | 1007.8 |
| 20260906120209 | 11 | 322 | 0.0 | 0.0 | 0.00 | 0.00 | 0.00 | 92 | 1007.8 |
| 20260906115204 | 11 | 322 | 0.0 | 0.0 | 0.00 | 0.00 | 0.00 | 91 | 1008.0 |
| 20260906114700 | 11 | 322 | 0.0 | 0.0 | 0.00 | 0.00 | 0.00 | 92 | 1008.0 |
| 20260906114159 | 11 | 322 | 0.0 | 0.0 | 0.00 | 0.00 | 0.00 | 91 | 1008.0 |
| 20260906113654 | 11 | 322 | 0.0 | 0.0 | 0.00 | 0.00 | 0.00 | 91 | 1008.0 |
| 20260906113155 | 11 | 322 | 0.0 | 0.0 | 0.00 | 0.00 | 0.00 | 91 | 1008.0 |
| 20260906112651 | 11 | 322 | 0.0 | 0.0 | 0.00 | 0.00 | 0.00 | 91 | 1008.0 |
| 20260906112146 | 11 | 322 | 0.0 | 0.0 | 0.00 | 0.00 | 0.00 | 91 | 1008.0 |
| 20260906111143 | 11 | 322 | 0.0 | 0.0 | 0.00 | 0.00 | 0.00 | 91 | 1007.9 |
| 20260906110640 | 11 | 322 | 0.0 | 0.0 | 0.00 | 0.00 | 0.00 | 91 | 1007.9 |
| 20260906110141 | 11 | 322 | 0.0 | 0.0 | 0.00 | 0.00 | 0.00 | 91 | 1007.9 |
| 20260906105636 | 11 | 322 | 0.0 | 0.0 | 0.00 | 0.00 | 0.00 | 91 | 1007.9 |
| 20260906105128 | 11 | 322 | 0.0 | 0.0 | 0.00 | 0.00 | 0.00 | 91 | 1007.9 |
| 20260906104622 | 11 | 322 | 0.0 | 0.0 | 0.00 | 0.00 | 0.00 | 90 | 1007.9 |
| 20260906104120 | 11 | 322 | 0.0 | 0.0 | 0.00 | 0.00 | 0.00 | 90 | 1008.0 |
| 20260906103615 | 11 | 322 | 0.0 | 0.0 | 0.00 | 0.00 | 0.00 | 90 | 1008.0 |
| 20260906103113 | 11 | 322 | 0.0 | 0.0 | 0.00 | 0.00 | 0.00 | 90 | 1008.0 |
| 20260906102610 | 11 | 322 | 0.0 | 0.0 | 0.00 | 0.00 | 0.00 | 90 | 1008.0 |
| 20260906102106 | 11 | 322 | 0.0 | 0.0 | 0.00 | 0.00 | 0.00 | 90 | 1008.0 |
| 20260906101103 | 11 | 322 | 0.0 | 0.0 | 0.00 | 0.00 | 0.00 | 90 | 1008.0 |
| 20260906100559 | 11 | 322 | 0.0 | 0.0 | 0.00 | 0.00 | 0.00 | 90 | 1008.0 |
| 20260906100056 | 11 | 322 | 0.0 | 0.0 | 0.00 | 0.00 | 0.00 | 90 | 1008.0 |
| 20260906095557 | 11 | 322 | 0.0 | 0.0 | 0.00 | 0.00 | 0.00 | 90 | 1008.2 |
| 20260906095057 | 11 | 322 | 0.0 | 0.0 | 0.00 | 0.00 | 0.00 | 90 | 1008.2 |
| 20260906094552 | 11 | 322 | 0.0 | 0.0 | 0.00 | 0.00 | 0.00 | 89 | 1008.2 |
| 20260906094054 | 11 | 322 | 0.0 | 0.0 | 0.00 | 0.00 | 0.00 | 89 | 1008.2 |
| 20260906093551 | 11 | 322 | 0.0 | 0.0 | 0.00 | 0.00 | 0.00 | 89 | 1008.2 |
| 20260906092550 | 11 | 322 | 0.0 | 0.0 | 0.00 | 0.00 | 0.00 | 89 | 1008.3 |
| 20260906092053 | 11 | 322 | 0.0 | 0.0 | 0.00 | 0.00 | 0.00 | 88 | 1008.3 |
| 20260906091548 | 12 | 322 | 0.0 | 0.0 | 0.00 | 0.00 | 0.00 | 88 | 1008.3 |
| 20260906091044 | 12 | 322 | 0.0 | 0.0 | 0.00 | 0.00 | 0.00 | 88 | 1008.4 |
| 20260906090540 | 12 | 322 | 0.0 | 0.0 | 0.00 | 0.00 | 0.00 | 88 | 1008.4 |
| 20260906090036 | 12 | 322 | 0.0 | 0.0 | 0.00 | 0.00 | 0.00 | 88 | 1008.4 |
| 20260906085535 | 12 | 322 | 0.0 | 0.0 | 0.00 | 0.00 | 0.00 | 88 | 1008.4 |
| 20260906085030 | 12 | 322 | 0.0 | 0.0 | 0.00 | 0.00 | 0.00 | 88 | 1008.4 |
| 20260906084026 | 12 | 322 | 0.0 | 0.0 | 0.00 | 0.00 | 0.00 | 87 | 1008.5 |
| 20260906083023 | 12 | 322 | 0.0 | 0.0 | 0.00 | 0.00 | 0.00 | 86 | 1008.5 |
| 20260906082514 | 12 | 322 | 0.0 | 0.0 | 0.00 | 0.00 | 0.00 | 86 | 1008.4 |
| 20260906082015 | 12 | 322 | 0.0 | 0.0 | 0.00 | 0.00 | 0.00 | 86 | 1008.4 |
| 20260906081509 | 12 | 322 | 0.0 | 0.0 | 0.00 | 0.00 | 0.00 | 85 | 1008.4 |
| 20260906081006 | 12 | 322 | 0.0 | 0.0 | 0.00 | 0.00 | 0.00 | 85 | 1008.5 |
| 20260906080509 | 12 | 322 | 0.0 | 0.0 | 0.00 | 0.00 | 0.00 | 85 | 1008.5 |
| 20260906075502 | 12 | 322 | 0.0 | 0.0 | 0.00 | 0.00 | 0.00 | 84 | 1008.7 |
| 20260906074958 | 12 | 322 | 0.0 | 0.0 | 0.00 | 0.00 | 0.00 | 84 | 1008.7 |
| 20260906074455 | 12 | 322 | 0.0 | 0.0 | 0.00 | 0.00 | 0.00 | 84 | 1008.7 |
| 20260906073955 | 12 | 322 | 0.0 | 0.0 | 0.00 | 0.00 | 0.00 | 83 | 1008.6 |
| 20260906073455 | 12 | 322 | 0.0 | 0.0 | 0.00 | 0.00 | 0.00 | 83 | 1008.6 |
| 20260906072956 | 12 | 322 | 0.0 | 0.0 | 0.00 | 0.00 | 0.00 | 82 | 1008.6 |
| 20260906071947 | 13 | 322 | 0.0 | 0.0 | 0.00 | 0.00 | 0.00 | 82 | 1008.7 |
| 20260906071446 | 13 | 322 | 0.0 | 0.0 | 0.00 | 0.00 | 0.00 | 81 | 1008.9 |
| 20260906070940 | 13 | 322 | 0.0 | 0.0 | 0.00 | 0.00 | 0.00 | 81 | 1008.7 |
| 20260906070434 | 13 | 322 | 0.0 | 0.0 | 0.00 | 0.00 | 0.00 | 82 | 1008.7 |
| 20260906065930 | 13 | 322 | 0.0 | 0.0 | 0.00 | 0.00 | 0.00 | 82 | 1008.7 |
| 20260906065429 | 13 | 322 | 0.0 | 0.0 | 0.00 | 0.00 | 0.00 | 82 | 1008.5 |
| 20260906064929 | 13 | 322 | 0.0 | 0.0 | 0.00 | 0.00 | 0.00 | 82 | 1008.5 |
| 20260906064424 | 13 | 322 | 0.0 | 0.0 | 0.00 | 0.00 | 0.00 | 82 | 1008.5 |
| 20260906063930 | 13 | 322 | 0.0 | 0.0 | 0.00 | 0.00 | 0.00 | 82 | 1008.6 |
| 20260906063422 | 13 | 322 | 0.0 | 0.0 | 0.00 | 0.00 | 0.00 | 82 | 1008.6 |
| 20260906062921 | 13 | 322 | 0.0 | 0.0 | 0.00 | 0.00 | 0.00 | 81 | 1008.6 |
| 20260906062419 | 13 | 322 | 0.0 | 0.0 | 0.00 | 0.00 | 0.00 | 81 | 1008.6 |
| 20260906061920 | 13 | 322 | 0.0 | 3.2 | 0.00 | 0.00 | 0.00 | 81 | 1008.6 |
| 20260906060918 | 13 | 322 | 0.0 | 1.6 | 0.00 | 0.00 | 0.00 | 81 | 1008.7 |
| 20260906060418 | 13 | 322 | 0.0 | 1.6 | 0.00 | 0.00 | 0.00 | 81 | 1008.7 |
| 20260906055917 | 14 | 322 | 0.0 | 3.2 | 0.00 | 0.00 | 0.00 | 81 | 1008.7 |
| 20260906055411 | 14 | 322 | 0.0 | 3.2 | 0.00 | 0.00 | 0.00 | 81 | 1009.0 |
| 20260906054906 | 14 | 322 | 0.0 | 0.0 | 0.00 | 0.00 | 0.00 | 82 | 1009.0 |
| 20260906054401 | 14 | 322 | 0.0 | 0.0 | 0.00 | 0.00 | 0.00 | 82 | 1009.0 |
| 20260906053356 | 15 | 322 | 0.0 | 3.2 | 0.00 | 0.00 | 0.00 | 83 | 1009.0 |
| 20260906052852 | 15 | 322 | 0.0 | 1.6 | 0.00 | 0.00 | 0.00 | 84 | 1009.0 |
| 20260906052352 | 15 | 322 | 0.0 | 3.2 | 0.00 | 0.00 | 0.00 | 84 | 1009.0 |
| 20260906051849 | 15 | 322 | 1.6 | 4.8 | 0.00 | 0.00 | 0.00 | 84 | 1009.0 |
| 20260906051349 | 15 | 322 | 1.6 | 4.8 | 0.00 | 0.00 | 0.00 | 83 | 1009.2 |
| 20260906050846 | 15 | 322 | 0.0 | 3.2 | 0.00 | 0.00 | 0.00 | 83 | 1009.2 |
| 20260906050343 | 15 | 322 | 0.0 | 0.0 | 0.00 | 0.00 | 0.00 | 82 | 1009.2 |
| 20260906045839 | 15 | 322 | 0.0 | 3.2 | 0.00 | 0.00 | 0.00 | 83 | 1009.0 |
| 20260906045338 | 15 | 322 | 0.0 | 3.2 | 0.00 | 0.00 | 0.00 | 82 | 1009.0 |
| 20260906044831 | 16 | 322 | 0.0 | 3.2 | 0.00 | 0.00 | 0.00 | 82 | 1009.0 |
| 20260906044330 | 16 | 322 | 1.6 | 4.8 | 0.00 | 0.00 | 0.00 | 83 | 1009.0 |
| 20260906043828 | 16 | 322 | 0.0 | 4.8 | 0.00 | 0.00 | 0.00 | 84 | 1009.0 |
| 20260906043325 | 16 | 322 | 0.0 | 1.6 | 0.00 | 0.00 | 0.00 | 83 | 1009.0 |
| 20260906042822 | 16 | 322 | 0.0 | 0.0 | 0.00 | 0.00 | 0.00 | 84 | 1008.9 |
| 20260906042319 | 16 | 322 | 0.0 | 0.0 | 0.00 | 0.00 | 0.00 | 84 | 1008.9 |
| 20260906041819 | 16 | 322 | 0.0 | 1.6 | 0.00 | 0.00 | 0.00 | 84 | 1008.9 |
| 20260906041317 | 16 | 322 | 1.6 | 6.4 | 0.00 | 0.00 | 0.00 | 84 | 1008.6 |
| 20260906040815 | 16 | 322 | 1.6 | 6.4 | 0.00 | 0.00 | 0.00 | 84 | 1008.6 |
| 20260906040310 | 16 | 322 | 1.6 | 6.4 | 0.00 | 0.00 | 0.00 | 84 | 1008.6 |
| 20260906035809 | 16 | 322 | 1.6 | 6.4 | 0.00 | 0.00 | 0.00 | 84 | 1008.4 |
| 20260906034805 | 16 | 323 | 3.2 | 6.4 | 0.00 | 0.00 | 0.00 | 85 | 1008.4 |
| 20260906034300 | 16 | 323 | 1.6 | 6.4 | 0.00 | 0.00 | 0.00 | 85 | 1008.2 |
| 20260906033257 | 17 | 324 | 0.0 | 4.8 | 0.00 | 0.00 | 0.00 | 84 | 1008.2 |
| 20260906032259 | 17 | 325 | 3.2 | 6.4 | 0.00 | 0.00 | 0.00 | 83 | 1008.0 |
| 20260906031754 | 17 | 325 | 3.2 | 6.4 | 0.00 | 0.00 | 0.00 | 83 | 1008.0 |
| 20260906031251 | 17 | 325 | 3.2 | 6.4 | 0.00 | 0.00 | 0.00 | 82 | 1008.0 |
| 20260906030750 | 18 | 325 | 3.2 | 6.4 | 0.00 | 0.00 | 0.00 | 82 | 1008.0 |
| 20260906030249 | 18 | 324 | 3.2 | 6.4 | 0.00 | 0.00 | 0.00 | 81 | 1008.0 |
| 20260906025748 | 18 | 320 | 3.2 | 6.4 | 0.00 | 0.00 | 0.00 | 81 | 1007.9 |
| 20260906025245 | 18 | 320 | 3.2 | 6.4 | 0.00 | 0.00 | 0.00 | 80 | 1007.9 |
| 20260906024745 | 18 | 320 | 3.2 | 6.4 | 0.00 | 0.00 | 0.00 | 80 | 1007.9 |
| 20260906024244 | 18 | 320 | 1.6 | 6.4 | 0.00 | 0.00 | 0.00 | 79 | 1007.8 |
| 20260906022735 | 19 | 320 | 4.8 | 9.7 | 0.00 | 0.00 | 0.00 | 79 | 1007.8 |
| 20260906021731 | 20 | 295 | 4.8 | 9.7 | 0.00 | 0.00 | 0.00 | 75 | 1007.8 |
| 20260906021228 | 20 | 302 | 4.8 | 11.3 | 0.00 | 0.00 | 0.00 | 74 | 1007.8 |
| 20260906020726 | 20 | 310 | 4.8 | 11.3 | 0.00 | 0.00 | 0.00 | 72 | 1007.8 |
| 20260906015723 | 21 | 331 | 3.2 | 6.4 | 0.00 | 0.00 | 0.00 | 69 | 1007.7 |
| 20260906015217 | 21 | 331 | 1.6 | 6.4 | 0.00 | 0.00 | 0.00 | 66 | 1007.8 |
| 20260906014715 | 22 | 331 | 1.6 | 6.4 | 0.00 | 0.00 | 0.00 | 65 | 1007.8 |
| 20260906014219 | 22 | 331 | 3.2 | 8.0 | 0.00 | 0.00 | 0.00 | 63 | 1007.6 |
| 20260906013719 | 22 | 331 | 3.2 | 8.0 | 0.00 | 0.00 | 0.00 | 62 | 1007.6 |
| 20260906013211 | 23 | 333 | 3.2 | 8.0 | 0.00 | 0.00 | 0.00 | 60 | 1007.6 |
| 20260906012707 | 23 | 337 | 3.2 | 6.4 | 0.00 | 0.00 | 0.00 | 59 | 1007.7 |
| 20260906012208 | 23 | 337 | 3.2 | 6.4 | 0.00 | 0.00 | 0.00 | 58 | 1007.7 |
| 20260906011204 | 25 | 338 | 3.2 | 8.0 | 0.00 | 0.00 | 0.00 | 57 | 1007.8 |
| 20260906010704 | 25 | 338 | 3.2 | 8.0 | 0.00 | 0.00 | 0.00 | 56 | 1007.8 |
| 20260906005703 | 25 | 331 | 3.2 | 8.0 | 0.00 | 0.00 | 0.00 | 57 | 1007.7 |
| 20260906005201 | 25 | 317 | 3.2 | 8.0 | 0.00 | 0.00 | 0.00 | 58 | 1007.7 |
| 20260906004656 | 25 | 305 | 4.8 | 12.9 | 0.00 | 0.00 | 0.00 | 60 | 1007.7 |
| 20260906004155 | 25 | 348 | 6.4 | 12.9 | 0.00 | 0.00 | 0.00 | 60 | 1007.7 |
| 20260906003654 | 25 | 330 | 6.4 | 12.9 | 0.00 | 0.00 | 0.00 | 59 | 1007.7 |
| 20260906003150 | 25 | 319 | 4.8 | 11.3 | 0.00 | 0.00 | 0.00 | 58 | 1007.7 |
| 20260906002146 | 25 | 338 | 4.8 | 11.3 | 0.00 | 0.00 | 0.00 | 58 | 1007.7 |
| 20260906001649 | 25 | 326 | 4.8 | 11.3 | 0.00 | 0.00 | 0.00 | 58 | 1007.7 |
| 20260906001145 | 25 | 341 | 4.8 | 11.3 | 0.00 | 0.00 | 0.00 | 58 | 1007.7 |
| 20260906000644 | 25 | 334 | 6.4 | 11.3 | 0.00 | 0.00 | 0.00 | 58 | 1007.7 |
| 20260906000142 | 26 | 323 | 4.8 | 11.3 | 0.00 | 0.00 | 0.00 | 57 | 1007.7 |
| 20260905235142 | 26 | 342 | 6.4 | 12.9 | 0.00 | 0.00 | 0.00 | 56 | 1007.7 |
| 20260905234641 | 26 | 328 | 4.8 | 12.9 | 0.00 | 0.00 | 0.00 | 56 | 1007.7 |
| 20260905234142 | 26 | 320 | 6.4 | 11.3 | 0.00 | 0.00 | 0.00 | 55 | 1007.6 |
| 20260905233640 | 26 | 303 | 6.4 | 12.9 | 0.00 | 0.00 | 0.00 | 55 | 1007.6 |
| 20260905233140 | 26 | 313 | 8.0 | 14.5 | 0.00 | 0.00 | 0.00 | 54 | 1007.6 |
| 20260905232637 | 26 | 315 | 6.4 | 14.5 | 0.00 | 0.00 | 0.00 | 54 | 1007.6 |
| 20260905232137 | 26 | 311 | 4.8 | 9.7 | 0.00 | 0.00 | 0.00 | 53 | 1007.7 |
| 20260905231634 | 26 | 323 | 6.4 | 14.5 | 0.00 | 0.00 | 0.00 | 54 | 1007.7 |
| 20260905231133 | 26 | 13 | 6.4 | 14.5 | 0.00 | 0.00 | 0.00 | 54 | 1007.9 |